Regional Weather Roundup
Issued by NWS

Home | Current Version | Previous Version | Graphics & Text | Print | Product List | Glossary On
Versions: 1 2 3 4 5 6 7 8 9 10 11 12 13 14 15 16 17 18 19 20 21 22 23 24 25 26 27 28 29 30 31 32 33 34 35 36 37 38 39 40 41 42 43 44 45 46 47 48 49 50
000
ASUS44 KMEG 031500
RWRTN
TENNESSEE HOURLY STATE WEATHER ROUNDUP
NATIONAL WEATHER SERVICE MEMPHIS TN
1000 AM CDT WED JUN 03 2015

TNZ002-004-019-021-049-052-054-088>092-031600-
WEST TENNESSEE

CITY           SKY/WX    TMP DP  RH WIND       PRES   REMARKS
MEMPHIS INTL   PTSUNNY   71  61  70 CALM      30.03F
NWS MEMPHIS      N/A     69 N/A N/A MISG        N/A
JACKSON        CLOUDY    69  59  70 N3        30.04S
DYERSBURG      CLOUDY    70  48  46 CALM      30.04F
PARIS          CLOUDY    66  57  72 NE6       30.04F
LEXINGTON      CLOUDY    66  59  77 CALM      30.03S
$$

TNZ008-025-027-028-033-062-065-066-031600-
NORTH MIDDLE TENNESSEE

CITY           SKY/WX    TMP DP  RH WIND       PRES   REMARKS
NASHVILLE      CLOUDY    67  59  75 NE3       30.04F
CLARKSVILLE    CLOUDY    63  55  75 NE6       30.05F
COOKEVILLE     CLOUDY    64  61  88 VRB3      30.04S
CROSSVILLE     PTSUNNY   68  58  70 VRB3      30.06S
$$

TNZ061-075-076-078-094-096-097-031600-
SOUTH MIDDLE TENNESSEE

CITY           SKY/WX    TMP DP  RH WIND       PRES   REMARKS
FAYETTEVILLE   CLOUDY   N/A N/A N/A MISG      30.01F
TULLAHOMA      CLOUDY    66  59  77 CALM      30.03F
WINCHESTER     MOSUNNY   72  63  73 NW3       30.01F
MCMINNVILLE    CLOUDY    66  63  88 NE6       30.04R
COLUMBIA       CLOUDY    64  59  82 CALM      30.02F
SHELBYVILLE      N/A     66  63  88 VRB5      30.04S
$$

TNZ017-018-042-046-047-031600-
NORTHEAST TENNESSEE

CITY           SKY/WX    TMP DP  RH WIND       PRES   REMARKS
TRI CITIES     MOSUNNY   69  61  75 S3        30.06S
ELIZABETHTON   SUNNY     70  59  68 E7        30.05F
$$

TNZ012-013-036-069-073-074-031600-
CENTRAL EAST TENNESSEE

CITY           SKY/WX    TMP DP  RH WIND       PRES   REMARKS
KNOXVILLE      PTSUNNY   68  61  78 E5        30.02F
OAK RIDGE      PTSUNNY   71  59  65 VRB5      30.04S
GATLINBURG     CLOUDY    64  59  82 NW5       30.04S
$$

TNZ083-085-099-031600-
SOUTHEAST TENNESSEE

CITY           SKY/WX    TMP DP  RH WIND       PRES   REMARKS
CHATTANOOGA    PTSUNNY   69  61  75 N6        30.03S
$$

SKY/WX REPORTED AS FAIR MEANS FEW OR NO CLOUDS BELOW
12 THOUSAND FEET.



USA.gov is the U.S. government's official web portal to all federal, state and local government web resources and services.